| time (UTC) | temp F | wind direction | speed MPH | gust MPH | rain 1hr in | rain 24hr in | rain mn in | humidity % | barometer mb |
| 20260502194502 | 72 | 313 | 4.0 | 8.0 | 0.00 | 1.02 | 0.11 | 52 | 1016.6 |
| 20260502194002 | 72 | 62 | 2.0 | 8.0 | 0.00 | 1.02 | 0.11 | 52 | 1016.5 |
| 20260502193503 | 72 | 5 | 2.0 | 6.0 | 0.00 | 1.02 | 0.11 | 53 | 1016.6 |
| 20260502193002 | 72 | 73 | 2.0 | 10.0 | 0.00 | 1.02 | 0.11 | 53 | 1016.5 |
| 20260502192502 | 72 | 318 | 2.0 | 10.0 | 0.00 | 1.02 | 0.11 | 49 | 1016.6 |
| 20260502192002 | 71 | 106 | 3.0 | 9.0 | 0.00 | 1.02 | 0.11 | 53 | 1016.5 |
| 20260502191504 | 71 | 303 | 3.0 | 12.0 | 0.00 | 1.02 | 0.11 | 54 | 1016.5 |
| 20260502191004 | 71 | 0 | 5.0 | 12.0 | 0.00 | 1.02 | 0.11 | 53 | 1016.6 |
| 20260502190504 | 71 | 36 | 3.0 | 12.0 | 0.00 | 1.02 | 0.11 | 55 | 1016.5 |
| 20260502190003 | 71 | 313 | 4.0 | 9.0 | 0.00 | 1.02 | 0.11 | 52 | 1016.5 |
| 20260502185503 | 71 | 352 | 5.0 | 9.0 | 0.00 | 1.02 | 0.11 | 53 | 1016.7 |
| 20260502185003 | 70 | 0 | 2.0 | 9.0 | 0.00 | 1.02 | 0.11 | 51 | 1016.6 |
| 20260502184503 | 71 | 13 | 4.0 | 9.0 | 0.00 | 1.02 | 0.11 | 53 | 1016.7 |
| 20260502184003 | 71 | 72 | 4.0 | 9.0 | 0.00 | 1.02 | 0.11 | 52 | 1016.8 |
| 20260502183953 | 71 | 268 | 5.0 | 9.0 | 0.00 | 1.02 | 0.11 | 52 | 1016.9 |
| 20260502183003 | 70 | 311 | 3.0 | 10.0 | 0.00 | 1.02 | 0.11 | 56 | 1017.0 |
| 20260502182503 | 70 | 42 | 3.0 | 13.0 | 0.00 | 1.02 | 0.11 | 53 | 1017.0 |
| 20260502182003 | 70 | 107 | 4.0 | 13.0 | 0.00 | 1.02 | 0.11 | 52 | 1017.1 |
| 20260502181504 | 70 | 26 | 4.0 | 11.0 | 0.00 | 1.02 | 0.11 | 54 | 1017.2 |
| 20260502181003 | 70 | 348 | 5.0 | 11.0 | 0.00 | 1.02 | 0.11 | 53 | 1017.2 |
| 20260502180730 | 70 | 5 | 2.0 | 13.0 | 0.00 | 1.02 | 0.11 | 54 | 1017.2 |
| 20260502180231 | 70 | 329 | 3.0 | 13.0 | 0.00 | 1.02 | 0.11 | 54 | 1017.3 |
| 20260502170224 | 68 | 59 | 4.0 | 13.0 | 0.00 | 1.02 | 0.11 | 59 | 1017.5 |
| 20260502163958 | 68 | 317 | 4.0 | 10.0 | 0.00 | 1.02 | 0.11 | 64 | 1017.5 |
| 20260502163454 | 68 | 317 | 2.0 | 9.0 | 0.00 | 1.02 | 0.11 | 66 | 1017.5 |
| 20260502162948 | 68 | 5 | 3.0 | 11.0 | 0.00 | 1.02 | 0.11 | 66 | 1017.5 |
| 20260502162445 | 68 | 51 | 3.0 | 11.0 | 0.00 | 1.02 | 0.11 | 65 | 1017.3 |
| 20260502161938 | 67 | 38 | 4.0 | 9.0 | 0.00 | 1.02 | 0.11 | 67 | 1017.4 |
| 20260502161435 | 68 | 317 | 3.0 | 8.0 | 0.00 | 1.02 | 0.11 | 72 | 1017.4 |
| 20260502160930 | 67 | 38 | 2.0 | 6.0 | 0.00 | 1.02 | 0.11 | 73 | 1017.3 |
| 20260502160429 | 67 | 344 | 2.0 | 6.0 | 0.00 | 1.02 | 0.11 | 75 | 1017.4 |
| 20260502160150 | 67 | 55 | 2.0 | 8.0 | 0.00 | 1.02 | 0.11 | 74 | 1017.3 |
| 20260502151929 | 64 | 334 | 4.0 | 8.0 | 0.00 | 1.02 | 0.11 | 79 | 1017.1 |
| 20260502151429 | 64 | 15 | 2.0 | 6.0 | 0.00 | 1.02 | 0.11 | 82 | 1017.0 |
| 20260502150929 | 64 | 319 | 2.0 | 4.0 | 0.00 | 1.02 | 0.11 | 84 | 1017.0 |
| 20260502150432 | 63 | 344 | 2.0 | 7.0 | 0.00 | 1.02 | 0.11 | 82 | 1016.9 |
| 20260502130428 | 56 | 0 | 1.0 | 4.0 | 0.00 | 1.02 | 0.11 | 99 | 1015.4 |
| 20260502123429 | 54 | 329 | 2.0 | 4.0 | 0.00 | 1.02 | 0.11 | 99 | 1015.6 |
| 20260502122929 | 54 | 344 | 2.0 | 4.0 | 0.00 | 1.02 | 0.11 | 99 | 1015.7 |
| 20260502122428 | 54 | 0 | 1.0 | 2.0 | 0.00 | 1.02 | 0.11 | 99 | 1015.3 |
| 20260502121929 | 54 | 17 | 1.0 | 4.0 | 0.00 | 1.02 | 0.11 | 99 | 1015.4 |
| 20260502121429 | 54 | 32 | 0.0 | 4.0 | 0.00 | 1.02 | 0.11 | 99 | 1015.2 |
| 20260502121154 | 53 | 22 | 1.0 | 2.0 | 0.00 | 1.02 | 0.11 | 99 | 1015.3 |
| 20260502120650 | 53 | 341 | 1.0 | 3.0 | 0.00 | 1.02 | 0.11 | 99 | 1015.2 |
| 20260502120419 | 53 | 323 | 2.0 | 3.0 | 0.00 | 1.02 | 0.11 | 99 | 1015.1 |
| 20260502115652 | 53 | 14 | 0.0 | 3.0 | 0.00 | 1.02 | 0.11 | 99 | 1015.2 |
| 20260502114929 | 53 | 355 | 1.0 | 3.0 | 0.00 | 1.02 | 0.11 | 99 | 1015.1 |
| 20260502114428 | 53 | 0 | 0.0 | 1.0 | 0.00 | 1.02 | 0.11 | 98 | 1015.1 |
| 20260502113930 | 53 | 0 | 0.0 | 1.0 | 0.00 | 1.02 | 0.11 | 98 | 1015.0 |
| 20260502113648 | 53 | 0 | 0.0 | 1.0 | 0.00 | 1.02 | 0.11 | 98 | 1014.9 |
| 20260502112929 | 53 | 0 | 0.0 | 2.0 | 0.00 | 1.02 | 0.11 | 98 | 1014.7 |
| 20260502112428 | 53 | 0 | 0.0 | 2.0 | 0.00 | 1.02 | 0.11 | 99 | 1014.5 |
| 20260502112417 | 53 | 0 | 1.0 | 2.0 | 0.00 | 1.02 | 0.11 | 99 | 1014.6 |
| 20260502111429 | 53 | 0 | 0.0 | 2.0 | 0.00 | 1.02 | 0.11 | 99 | 1014.4 |
| 20260502110928 | 53 | 0 | 1.0 | 3.0 | 0.00 | 1.02 | 0.11 | 99 | 1014.3 |
| 20260502110652 | 53 | 352 | 1.0 | 3.0 | 0.00 | 1.02 | 0.11 | 99 | 1014.3 |
| 20260502110153 | 53 | 0 | 1.0 | 3.0 | 0.00 | 1.02 | 0.11 | 99 | 1014.2 |
| 20260502105431 | 53 | 5 | 0.0 | 3.0 | 0.00 | 1.02 | 0.11 | 98 | 1014.1 |
| 20260502105156 | 53 | 5 | 1.0 | 3.0 | 0.00 | 1.11 | 0.11 | 98 | 1014.1 |
| 20260502104917 | 53 | 316 | 0.0 | 2.0 | 0.00 | 1.11 | 0.11 | 98 | 1014.0 |
| 20260502103932 | 53 | 315 | 0.0 | 2.0 | 0.00 | 1.11 | 0.11 | 98 | 1014.0 |
| 20260502103432 | 53 | 352 | 0.0 | 2.0 | 0.00 | 1.11 | 0.11 | 98 | 1013.8 |
| 20260502102931 | 53 | 333 | 0.0 | 3.0 | 0.00 | 1.11 | 0.11 | 98 | 1013.7 |
| 20260502102431 | 53 | 332 | 0.0 | 3.0 | 0.00 | 1.11 | 0.11 | 98 | 1013.9 |
| 20260502102151 | 53 | 329 | 1.0 | 3.0 | 0.00 | 1.11 | 0.11 | 99 | 1013.8 |
| 20260502101431 | 53 | 355 | 0.0 | 4.0 | 0.00 | 1.11 | 0.11 | 98 | 1013.9 |
| 20260502100931 | 53 | 5 | 1.0 | 4.0 | 0.00 | 1.11 | 0.11 | 98 | 1013.9 |
| 20260502100431 | 53 | 5 | 0.0 | 2.0 | 0.00 | 1.11 | 0.11 | 98 | 1013.8 |
| 20260502091429 | 53 | 45 | 0.0 | 2.0 | 0.00 | 1.12 | 0.11 | 99 | 1013.5 |
| 20260502091148 | 53 | 45 | 1.0 | 2.0 | 0.00 | 1.12 | 0.11 | 99 | 1013.7 |
| 20260502090429 | 53 | 43 | 0.0 | 2.0 | 0.00 | 1.12 | 0.11 | 99 | 1013.7 |
| 20260502070928 | 53 | 33 | 1.0 | 3.0 | 0.04 | 1.13 | 0.11 | 98 | 1014.0 |
| 20260502070650 | 53 | 93 | 1.0 | 4.0 | 0.05 | 1.13 | 0.11 | 98 | 1014.0 |
| 20260502065928 | 53 | 5 | 0.0 | 6.0 | 0.05 | 1.08 | 0.11 | 98 | 1014.1 |
| 20260502065429 | 53 | 312 | 1.0 | 6.0 | 0.06 | 1.08 | 0.11 | 98 | 1014.1 |
| 20260502065151 | 53 | 292 | 1.0 | 3.0 | 0.05 | 1.08 | 0.10 | 98 | 1014.0 |
| 20260502064429 | 53 | 34 | 0.0 | 4.0 | 0.05 | 1.08 | 0.10 | 98 | 1013.8 |
| 20260502063929 | 53 | 33 | 1.0 | 4.0 | 0.05 | 1.08 | 0.10 | 98 | 1013.9 |
| 20260502063429 | 53 | 346 | 0.0 | 4.0 | 0.05 | 1.08 | 0.09 | 98 | 1013.9 |
| 20260502062929 | 53 | 298 | 0.0 | 6.0 | 0.05 | 1.09 | 0.09 | 98 | 1014.0 |
| 20260502062429 | 53 | 341 | 2.0 | 6.0 | 0.05 | 1.09 | 0.08 | 98 | 1013.8 |
| 20260502061929 | 53 | 331 | 2.0 | 9.0 | 0.06 | 1.09 | 0.08 | 98 | 1013.8 |
| 20260502061429 | 53 | 74 | 3.0 | 9.0 | 0.06 | 1.09 | 0.08 | 98 | 1014.0 |
| 20260502060929 | 53 | 225 | 2.0 | 5.0 | 0.06 | 1.09 | 0.07 | 98 | 1014.1 |
| 20260502060428 | 53 | 13 | 2.0 | 7.0 | 0.06 | 1.09 | 0.06 | 98 | 1013.7 |
| 20260502055928 | 53 | 348 | 3.0 | 11.0 | 0.06 | 1.03 | 0.05 | 98 | 1014.1 |
| 20260502055429 | 53 | 355 | 2.0 | 11.0 | 0.05 | 1.03 | 0.05 | 98 | 1013.8 |
| 20260502054929 | 53 | 331 | 2.0 | 9.0 | 0.05 | 1.03 | 0.05 | 98 | 1013.6 |
| 20260502054430 | 53 | 0 | 2.0 | 9.0 | 0.06 | 1.03 | 0.05 | 98 | 1013.4 |
| 20260502053931 | 53 | 330 | 1.0 | 6.0 | 0.06 | 1.03 | 0.05 | 98 | 1013.3 |
| 20260502053430 | 53 | 9 | 3.0 | 8.0 | 0.05 | 1.03 | 0.04 | 98 | 1012.9 |
| 20260502053151 | 53 | 113 | 2.0 | 8.0 | 0.05 | 1.03 | 0.04 | 98 | 1012.9 |
| 20260502052430 | 53 | 327 | 2.0 | 6.0 | 0.05 | 1.03 | 0.03 | 98 | 1013.8 |
| 20260502051930 | 53 | 340 | 2.0 | 6.0 | 0.04 | 1.03 | 0.02 | 98 | 1013.8 |
| 20260502051430 | 53 | 333 | 2.0 | 5.0 | 0.05 | 1.03 | 0.02 | 98 | 1013.7 |
| 20260502050931 | 53 | 16 | 2.0 | 7.0 | 0.05 | 1.04 | 0.01 | 98 | 1013.4 |
| 20260502050430 | 53 | 5 | 2.0 | 7.0 | 0.05 | 1.04 | 0.00 | 98 | 1013.7 |
| 20260502045930 | 53 | 355 | 2.0 | 4.0 | 0.07 | 0.97 | 1.04 | 98 | 1013.6 |
| 20260502045430 | 53 | 314 | 2.0 | 5.0 | 0.09 | 0.97 | 1.04 | 98 | 1013.6 |
| 20260502044930 | 53 | 86 | 2.0 | 5.0 | 0.10 | 0.97 | 1.04 | 98 | 1013.3 |
| 20260502044429 | 53 | 323 | 2.0 | 8.0 | 0.10 | 0.97 | 1.03 | 98 | 1013.4 |
| 20260502043930 | 53 | 15 | 2.0 | 8.0 | 0.11 | 0.97 | 1.03 | 98 | 1013.6 |
| 20260502043431 | 53 | 302 | 1.0 | 3.0 | 0.11 | 0.97 | 1.03 | 98 | 1013.9 |
| 20260502042930 | 53 | 346 | 2.0 | 3.0 | 0.11 | 0.97 | 1.03 | 98 | 1014.0 |
| 20260502042431 | 53 | 304 | 1.0 | 5.0 | 0.10 | 0.97 | 1.02 | 98 | 1013.9 |
| 20260502041930 | 53 | 296 | 1.0 | 5.0 | 0.10 | 0.97 | 1.02 | 98 | 1013.8 |
| 20260502041853 | 53 | 300 | 2.0 | 5.0 | 0.09 | 0.97 | 1.01 | 98 | 1014.0 |
| 20260502041847 | 53 | 311 | 1.0 | 3.0 | 0.08 | 0.97 | 1.00 | 98 | 1014.1 |
| 20260502040421 | 53 | 333 | 0.0 | 2.0 | 0.08 | 0.97 | 0.98 | 98 | 1014.1 |
| 20260502035917 | 53 | 38 | 0.0 | 4.0 | 0.06 | 0.91 | 0.96 | 98 | 1014.2 |
| 20260502035413 | 53 | 42 | 1.0 | 6.0 | 0.04 | 0.92 | 0.95 | 98 | 1014.0 |
| 20260502034907 | 53 | 304 | 2.0 | 6.0 | 0.03 | 0.92 | 0.93 | 98 | 1014.1 |
| 20260502034403 | 53 | 74 | 1.0 | 8.0 | 0.02 | 0.92 | 0.92 | 98 | 1014.0 |
| 20260502033904 | 53 | 311 | 2.0 | 11.0 | 0.01 | 0.92 | 0.92 | 98 | 1014.0 |
| 20260502033403 | 53 | 174 | 1.0 | 11.0 | 0.01 | 0.92 | 0.92 | 98 | 1013.4 |
| 20260502032903 | 53 | 46 | 2.0 | 4.0 | 0.01 | 0.92 | 0.92 | 98 | 1013.5 |
| 20260502032403 | 53 | 304 | 2.0 | 8.0 | 0.01 | 0.92 | 0.92 | 98 | 1013.6 |
| 20260502031903 | 53 | 28 | 1.0 | 8.0 | 0.01 | 0.92 | 0.92 | 98 | 1013.5 |
| 20260502031403 | 53 | 334 | 2.0 | 6.0 | 0.01 | 0.92 | 0.92 | 98 | 1013.6 |
| 20260502031125 | 53 | 53 | 2.0 | 6.0 | 0.01 | 0.92 | 0.92 | 98 | 1013.6 |
| 20260502030403 | 53 | 312 | 2.0 | 6.0 | 0.00 | 0.92 | 0.91 | 98 | 1013.6 |
| 20260502030127 | 53 | 34 | 2.0 | 8.0 | 0.00 | 0.92 | 0.91 | 98 | 1013.6 |
| 20260502025629 | 53 | 78 | 1.0 | 8.0 | 0.00 | 0.92 | 0.91 | 98 | 1013.7 |
| 20260502024902 | 53 | 308 | 1.0 | 7.0 | 0.00 | 0.92 | 0.91 | 98 | 1013.6 |
| 20260502024403 | 53 | 82 | 2.0 | 7.0 | 0.00 | 0.93 | 0.91 | 98 | 1013.4 |
| 20260502023903 | 53 | 338 | 2.0 | 9.0 | 0.00 | 0.93 | 0.91 | 98 | 1013.2 |
| 20260502023633 | 53 | 51 | 2.0 | 9.0 | 0.00 | 0.93 | 0.91 | 98 | 1013.0 |
| 20260502022904 | 53 | 267 | 2.0 | 5.0 | 0.00 | 0.93 | 0.91 | 98 | 1012.8 |
| 20260502022630 | 53 | 278 | 2.0 | 5.0 | 0.00 | 0.93 | 0.91 | 98 | 1012.7 |
| 20260502021903 | 53 | 334 | 2.0 | 12.0 | 0.00 | 0.93 | 0.91 | 98 | 1012.6 |
| 20260502021403 | 53 | 337 | 2.0 | 12.0 | 0.00 | 0.93 | 0.91 | 98 | 1012.4 |
| 20260502021124 | 54 | 344 | 2.0 | 8.0 | 0.00 | 0.93 | 0.91 | 98 | 1012.4 |
| 20260502020403 | 54 | 13 | 2.0 | 8.0 | 0.00 | 0.93 | 0.91 | 98 | 1012.3 |
| 20260502015903 | 54 | 14 | 1.0 | 8.0 | 0.00 | 0.93 | 0.91 | 98 | 1012.2 |
| 20260502015402 | 54 | 348 | 2.0 | 5.0 | 0.00 | 0.93 | 0.91 | 98 | 1011.8 |
| 20260502014902 | 54 | 315 | 2.0 | 8.0 | 0.00 | 0.93 | 0.91 | 98 | 1011.5 |
| 20260502014403 | 53 | 26 | 1.0 | 8.0 | 0.00 | 0.94 | 0.91 | 98 | 1011.6 |
| 20260502013903 | 53 | 310 | 2.0 | 6.0 | 0.00 | 0.94 | 0.91 | 98 | 1011.7 |
| 20260502013404 | 53 | 13 | 4.0 | 8.0 | 0.00 | 0.94 | 0.91 | 98 | 1011.7 |
| 20260502012904 | 53 | 302 | 2.0 | 9.0 | 0.00 | 0.94 | 0.91 | 98 | 1011.4 |
| 20260502012403 | 53 | 287 | 2.0 | 9.0 | 0.00 | 0.94 | 0.91 | 98 | 1011.7 |
| 20260502011903 | 53 | 324 | 2.0 | 7.0 | 0.01 | 0.94 | 0.91 | 98 | 1011.5 |
| 20260502011403 | 54 | 5 | 2.0 | 7.0 | 0.01 | 0.94 | 0.91 | 98 | 1011.2 |
| 20260502010903 | 54 | 336 | 2.0 | 8.0 | 0.02 | 0.94 | 0.91 | 98 | 1011.0 |
| 20260502010403 | 54 | 336 | 2.0 | 8.0 | 0.02 | 0.94 | 0.91 | 98 | 1010.9 |
| 20260502005903 | 54 | 34 | 4.0 | 8.0 | 0.03 | 0.91 | 0.91 | 98 | 1011.0 |
| 20260502005403 | 54 | 67 | 2.0 | 6.0 | 0.04 | 0.91 | 0.91 | 98 | 1011.3 |
| 20260502004904 | 54 | 346 | 3.0 | 8.0 | 0.05 | 0.93 | 0.91 | 98 | 1011.2 |
| 20260502004402 | 54 | 344 | 2.0 | 8.0 | 0.07 | 0.93 | 0.91 | 98 | 1011.0 |
| 20260502003902 | 55 | 355 | 2.0 | 7.0 | 0.08 | 0.93 | 0.91 | 98 | 1010.9 |
| 20260502003402 | 55 | 19 | 2.0 | 4.0 | 0.10 | 0.93 | 0.91 | 98 | 1011.0 |
| 20260502002903 | 55 | 315 | 1.0 | 4.0 | 0.11 | 0.93 | 0.91 | 98 | 1011.2 |
| 20260502002626 | 55 | 313 | 1.0 | 5.0 | 0.12 | 0.93 | 0.91 | 98 | 1011.6 |
| 20260502001903 | 55 | 5 | 2.0 | 6.0 | 0.12 | 0.93 | 0.90 | 98 | 1011.8 |
| 20260502001404 | 55 | 23 | 1.0 | 6.0 | 0.13 | 0.93 | 0.90 | 98 | 1011.7 |
| 20260502000903 | 55 | 336 | 1.0 | 6.0 | 0.13 | 0.93 | 0.89 | 98 | 1011.6 |
| 20260502000404 | 55 | 309 | 3.0 | 6.0 | 0.15 | 0.93 | 0.89 | 98 | 1011.7 |
| 20260501235903 | 55 | 336 | 1.0 | 9.0 | 0.16 | 0.76 | 0.88 | 98 | 1011.8 |
| 20260501235403 | 55 | 0 | 3.0 | 9.0 | 0.17 | 0.77 | 0.87 | 98 | 1012.0 |
| 20260501234903 | 55 | 0 | 0.0 | 3.0 | 0.19 | 0.77 | 0.85 | 98 | 1012.1 |
| 20260501234404 | 55 | 0 | 1.0 | 4.0 | 0.20 | 0.77 | 0.84 | 98 | 1012.2 |
| 20260501233902 | 55 | 25 | 0.0 | 4.0 | 0.20 | 0.77 | 0.82 | 98 | 1012.2 |
| 20260501233402 | 55 | 321 | 0.0 | 3.0 | 0.20 | 0.77 | 0.81 | 98 | 1012.2 |
| 20260501233124 | 55 | 326 | 0.0 | 3.0 | 0.21 | 0.77 | 0.80 | 98 | 1012.3 |
| 20260501232403 | 55 | 24 | 0.0 | 0.0 | 0.23 | 0.77 | 0.79 | 98 | 1012.2 |
| 20260501231903 | 55 | 24 | 0.0 | 0.0 | 0.25 | 0.77 | 0.78 | 98 | 1012.0 |
| 20260501231403 | 55 | 24 | 0.0 | 1.0 | 0.26 | 0.77 | 0.77 | 98 | 1011.8 |
| 20260501230903 | 55 | 24 | 0.0 | 2.0 | 0.26 | 0.77 | 0.76 | 98 | 1011.5 |
| 20260501230622 | 55 | 24 | 1.0 | 2.0 | 0.25 | 0.78 | 0.73 | 98 | 1011.3 |
| 20260501225903 | 55 | 28 | 0.0 | 2.0 | 0.25 | 0.53 | 0.71 | 98 | 1011.1 |
| 20260501225621 | 55 | 30 | 1.0 | 3.0 | 0.24 | 0.53 | 0.69 | 98 | 1011.1 |
| 20260501224903 | 55 | 317 | 1.0 | 3.0 | 0.23 | 0.53 | 0.67 | 98 | 1011.1 |
| 20260501224403 | 55 | 51 | 0.0 | 3.0 | 0.21 | 0.53 | 0.64 | 98 | 1011.3 |
| 20260501223903 | 55 | 325 | 1.0 | 3.0 | 0.21 | 0.53 | 0.62 | 98 | 1011.1 |
| 20260501223403 | 55 | 346 | 0.0 | 4.0 | 0.19 | 0.53 | 0.61 | 98 | 1011.5 |
| 20260501223130 | 55 | 325 | 1.0 | 4.0 | 0.18 | 0.53 | 0.58 | 98 | 1011.4 |
| 20260501222629 | 55 | 25 | 1.0 | 7.0 | 0.16 | 0.53 | 0.55 | 98 | 1011.5 |
| 20260501222129 | 55 | 0 | 2.0 | 7.0 | 0.13 | 0.53 | 0.53 | 98 | 1010.9 |
| 20260501221403 | 55 | 59 | 2.0 | 8.0 | 0.12 | 0.54 | 0.51 | 98 | 1010.6 |
| 20260501220904 | 55 | 74 | 4.0 | 11.0 | 0.11 | 0.54 | 0.50 | 98 | 1010.5 |
| 20260501220403 | 55 | 86 | 2.0 | 11.0 | 0.11 | 0.54 | 0.48 | 98 | 1010.2 |
| 20260501220120 | 55 | 178 | 3.0 | 8.0 | 0.12 | 0.43 | 0.47 | 98 | 1010.4 |
| 20260501215404 | 55 | 200 | 1.0 | 6.0 | 0.15 | 0.43 | 0.46 | 98 | 1010.3 |
| 20260501214903 | 55 | 138 | 2.0 | 6.0 | 0.16 | 0.43 | 0.44 | 98 | 1009.9 |
| 20260501214403 | 55 | 291 | 2.0 | 6.0 | 0.19 | 0.43 | 0.43 | 98 | 1009.6 |
| 20260501213903 | 55 | 24 | 2.0 | 5.0 | 0.20 | 0.43 | 0.42 | 98 | 1010.0 |
| 20260501213403 | 55 | 281 | 2.0 | 11.0 | 0.22 | 0.43 | 0.42 | 98 | 1010.0 |
| 20260501212902 | 55 | 105 | 2.0 | 11.0 | 0.28 | 0.43 | 0.41 | 98 | 1009.8 |
| 20260501212404 | 56 | 11 | 2.0 | 9.0 | 0.27 | 0.43 | 0.40 | 98 | 1010.0 |
| 20260501211903 | 56 | 45 | 4.0 | 9.0 | 0.27 | 0.44 | 0.40 | 98 | 1010.2 |
| 20260501211404 | 56 | 309 | 4.0 | 10.0 | 0.26 | 0.44 | 0.39 | 98 | 1010.1 |
| 20260501210903 | 56 | 63 | 3.0 | 10.0 | 0.26 | 0.44 | 0.39 | 98 | 1009.8 |
| 20260501210404 | 56 | 0 | 3.0 | 10.0 | 0.25 | 0.44 | 0.37 | 98 | 1009.8 |
| 20260501205903 | 56 | 15 | 1.0 | 8.0 | 0.22 | 0.21 | 0.34 | 98 | 1009.8 |
| 20260501205403 | 56 | 56 | 1.0 | 6.0 | 0.18 | 0.21 | 0.31 | 98 | 1010.0 |
| 20260501204903 | 56 | 42 | 2.0 | 8.0 | 0.15 | 0.21 | 0.27 | 98 | 1010.1 |
| 20260501204404 | 56 | 5 | 3.0 | 8.0 | 0.11 | 0.21 | 0.24 | 98 | 1010.4 |
| 20260501203903 | 56 | 18 | 3.0 | 12.0 | 0.09 | 0.21 | 0.21 | 98 | 1010.0 |
| 20260501203404 | 56 | 346 | 3.0 | 12.0 | 0.08 | 0.22 | 0.19 | 98 | 1010.5 |
| 20260501202900 | 56 | 10 | 2.0 | 9.0 | 0.01 | 0.22 | 0.13 | 98 | 1010.7 |
| 20260501202401 | 56 | 88 | 2.0 | 10.0 | 0.01 | 0.22 | 0.13 | 98 | 1010.9 |
| 20260501202340 | 56 | 51 | 3.0 | 10.0 | 0.01 | 0.22 | 0.13 | 98 | 1011.0 |
| 20260501201401 | 57 | 44 | 3.0 | 8.0 | 0.01 | 0.22 | 0.13 | 98 | 1011.0 |
| 20260501200901 | 57 | 16 | 1.0 | 7.0 | 0.01 | 0.22 | 0.13 | 98 | 1011.5 |
| 20260501200401 | 57 | 28 | 3.0 | 4.0 | 0.01 | 0.22 | 0.13 | 98 | 1012.2 |
| 20260501200123 | 57 | 13 | 2.0 | 5.0 | 0.01 | 0.21 | 0.13 | 98 | 1012.3 |
| 20260501195403 | 57 | 11 | 2.0 | 5.0 | 0.01 | 0.21 | 0.13 | 98 | 1012.1 |
| 20260501194900 | 57 | 11 | 3.0 | 5.0 | 0.01 | 0.22 | 0.13 | 98 | 1011.9 |